User: anonymous   Login
Location: Bow
(51.5261°N, 0.0167°W)
Time: 03:06:02
(UTC+00:00)
Language:

NOSS 3-4 (A) - Orbit

View from above orbital plane
View from above orbital plane
View from above satellite
View from above satellite

Ground track
Ground track

The orbit data is extracted from the following two-line orbital elements,

1 31701U 07027A   20311.70791219 0.00000000  00000-0  00000-0 0    04
2 31701  63.3997 163.9297 0295564  19.5001 340.4999 13.40809543    00
Epoch (UTC): 06 November 2020 16:59:23
Eccentricity: 0.0295564
inclination: 63.3997°
perigee height: 885 km
apogee height: 1327 km
right ascension of ascending node: 163.9297°
argument of perigee: 19.5001°
revolutions per day: 13.40809543
mean anomaly at epoch: 340.4999°
orbit number at epoch: 0

The dashed part of the orbit path shows where the satellite is in the earth's shadow,  

DLR